Weather History for KRIV - August, 2013

Change the Weather History Date:

Saturday, August 3, 2013

  Actual Average (KRAL) Record (KRAL)
Temperature  
Mean Temperature 71 °F 80 °F  
Max Temperature 88 °F 95 °F 110 °F (1918)
Min Temperature 55 °F 65 °F 46 °F (1912)
Degree Days  
Heating Degree Days 0 0  
Month to date heating degree days 0  
Since 1 June heating degree days 2  
Since 1 July heating degree days 0  
Cooling Degree Days 6 15  
Month to date cooling degree days 45  
Year to date cooling degree days 857  
Since 1 June cooling degree days 680  
Growing Degree Days 21 (Base 50)    
Moisture  
Dew Point 59 °F    
Average Humidity 79    
Maximum Humidity 100    
Minimum Humidity 40    
Precipitation  
Precipitation 0.00 in 0.01 in 0.04 in (1966)
Month to date precipitation 0.02  
Year to date precipitation 9.28  
Since 1 July precipitation 0.09  
Snow  
Snow 0.00 in - - ()
Month to date snowfall  
Year to date snowfall  
Since 1 July snowfall  
Snow Depth -    
Sea Level Pressure  
Sea Level Pressure 29.95 in    
Wind  
Wind Speed 4 mph (NW)    
Max Wind Speed 13 mph    
Max Gust Speed -    
Visibility 7 miles    
Events Fog    
T = Trace of Precipitation, MM = Missing Value Source: NWS Daily Summary

Daily Weather History Graph

Daily Weather History Graph

Search for Another Location

Airport or City:

Trip Planner

Search our weather history database for the weather conditions in past years. The results will help you decide how hot, cold, wet, or windy it might be!

Date:

Astronomy

Aug. 03, 2013 Rise Set
Actual Time 6:02 AM PDT 7:47 PM PDT
Civil Twilight 5:35 AM PDT 8:14 PM PDT
Nautical Twilight 5:02 AM PDT 8:47 PM PDT
Astronomical Twilight 4:27 AM PDT 9:21 PM PDT
Moon 3:17 AM PDT (8/3) 5:31 PM PDT (8/3)
Length of Visible Light 14h 39m
Length of Day
13h 45m
Waning Crescent, 9% of the Moon is Illuminated
Aug 3
Waning Crescent
Aug 6
New
Aug 14
First Quarter
Aug 20
Full
Aug 28
Last Quarter

Hourly Weather History & Observations

Time (PDT) Temp. Heat Index Dew Point Humidity Pressure Visibility Wind Dir Wind Speed Gust Speed Precip Events Conditions
12:58 AM 61.0 °F - 56.7 °F 86% 29.95 in 10.0 mi West 2.3 mph - N/A   Clear
1:58 AM 59.4 °F - 56.7 °F 91% 29.95 in 10.0 mi West 3.5 mph - N/A   Clear
2:58 AM 57.4 °F - 56.1 °F 96% 29.94 in 10.0 mi WNW 2.3 mph - N/A   Clear
3:58 AM 57.0 °F - 57.0 °F 100% 29.94 in 10.0 mi WNW 2.3 mph - N/A   Clear
4:58 AM 55.4 °F - 55.4 °F 100% 29.94 in 8.0 mi WNW 3.5 mph - N/A   Clear
5:58 AM 55.6 °F - 55.6 °F 100% 29.95 in 6.0 mi WNW 4.6 mph - N/A   Clear
6:03 AM 55.4 °F - 55.4 °F 100% 29.98 in 2.0 mi WNW 4.6 mph - N/A   Scattered Clouds
6:14 AM 55.4 °F - 55.4 °F 100% 29.98 in 0.8 mi WNW 3.5 mph - N/A   Mist
6:22 AM 55.4 °F - 55.4 °F 100% 29.98 in 0.2 mi WNW 2.3 mph - N/A Fog Fog
6:26 AM 55.4 °F - 55.4 °F 100% 29.98 in 0.2 mi WNW 2.3 mph - N/A Fog Fog
6:58 AM 56.8 °F - 56.8 °F 100% 29.96 in 0.4 mi NW 2.3 mph - N/A Fog Fog
7:23 AM 57.2 °F - 57.2 °F 100% 30.00 in 0.8 mi NW 2.3 mph - N/A   Mostly Cloudy
7:35 AM 57.2 °F - 57.2 °F 100% 30.00 in 1.5 mi NW 3.5 mph - N/A   Partly Cloudy
7:45 AM 59.0 °F - 59.0 °F 100% 30.00 in 3.0 mi NW 3.5 mph - N/A   Partly Cloudy
7:58 AM 59.9 °F - 59.9 °F 100% 29.97 in 5.0 mi WNW 2.3 mph - N/A   Partly Cloudy
8:58 AM 66.9 °F - 66.9 °F 100% 29.97 in 10.0 mi North 1.2 mph - N/A   Clear
9:58 AM 72.5 °F - 65.3 °F 78% 29.97 in 10.0 mi ENE 2.3 mph - N/A   Clear
10:58 AM 78.6 °F - 64.6 °F 62% 29.97 in 10.0 mi NNW 9.2 mph - N/A   Clear
11:58 AM 81.5 °F 82.7 °F 62.8 °F 53% 29.96 in 10.0 mi NW 8.1 mph - N/A   Clear
12:58 PM 83.8 °F 83.6 °F 59.2 °F 43% 29.95 in 10.0 mi Variable 4.6 mph - N/A   Mostly Cloudy
1:58 PM 86.5 °F 86.5 °F 61.2 °F 42% 29.94 in 10.0 mi Variable 6.9 mph - N/A   Mostly Cloudy
2:58 PM 87.4 °F 87.2 °F 60.1 °F 40% 29.92 in 10.0 mi NW 10.4 mph - N/A   Mostly Cloudy
3:58 PM 86.4 °F 86.1 °F 60.3 °F 41% 29.91 in 10.0 mi NW 12.7 mph - N/A   Partly Cloudy
4:58 PM 86.2 °F 85.9 °F 59.9 °F 41% 29.91 in 10.0 mi WNW 12.7 mph - N/A   Clear
5:58 PM 83.7 °F 83.8 °F 60.1 °F 45% 29.90 in 10.0 mi WNW 12.7 mph - N/A   Clear
6:58 PM 79.0 °F - 58.5 °F 49% 29.91 in 10.0 mi WNW 12.7 mph - N/A   Clear
7:58 PM 73.0 °F - 58.6 °F 61% 29.92 in 10.0 mi NW 10.4 mph - N/A   Clear
8:58 PM 70.0 °F - 58.3 °F 66% 29.95 in 10.0 mi NW 5.8 mph - N/A   Clear
9:58 PM 67.1 °F - 58.5 °F 74% 29.96 in 10.0 mi WNW 5.8 mph - N/A   Clear
10:58 PM 64.8 °F - 59.5 °F 83% 29.97 in 10.0 mi WNW 4.6 mph - N/A   Clear
11:58 PM 63.0 °F - 59.2 °F 87% 29.97 in 10.0 mi WNW 3.5 mph - N/A   Clear